STARLINK-1404, 45686

Orbit data source: Space-Track

STARLINK-1404, 45686 is a payload satellite owned by SpaceX/Seattle (US) in LEO that was launched on Thu, 04 Jun 2020 UTC via an FALCON 9 launch vehicle from the Air Force Eastern Test Range (AFETR). Payload-class satellites include a variety of spacecraft equipped with specific instruments for various scientific and technological missions. These include communications satellites like Starlink; space stations such as the ISS; scientific satellites like the Hubble; Earth observation satellites from companies like Planet Labs, Umbra, and HawkEye 360; GPS; miniature CubeSats for education and research; and military/defense satellites.

Loading next visibility...
Identifier
45686, 2020-035AF
Orbit
LEO
Last TLE update
13 hours ago
Origin
Manufacturer
SpaceX/Seattle
Mission
Operational Commercial Communications
Bus & Motor
STARLINK, Unknown motor
Mass
260 kg wet, ~248 kg dry
Launch date (UTC)
2020-06-04 (5 years ago)
Launch vehicle
FALCON 9
Launch site
Air Force Eastern Test Range (AFETR)
Object type
Payload
Rocket body
Debris
Shape & HBR
Box + 1 Pan, 8.86 m
Radar Cross Section
13.562 m², Large (>1 m²)

Expand to show TLE details & history

TLE from 13 hours ago
0 STARLINK-1404
1 45686U 20035AF  25128.73863250  .00007870  00000-0  54687-3 0  9996
2 45686  53.0561 345.5950 0001073 103.3936 256.7172 15.06382881272911
Epoch: 2025-05-08T17:43Z
Definitive object data (Epoch: 2025-05-08T17:43:37.848Z)
Latitude
-0.00005°
Longitude
-147.11755°
Altitude
548.314 km
Speed
7.589 km/s
True Right ascension
23h 02m 22s
True Declination
0° 00' 00"
Sunlit
Object was in daylight at TLE epoch
Visualization TLE readout
Latitude
44.54653°
Longitude
-17.00394°
Altitude
551.094 km
Speed
7.592 km/s
Apparent Right ascension
05h 26m 21s
Apparent Declination
5° 23' 25"
Sunlit
Object is in daylight
Visualization observer readout
Local Sidereal Time
15:08:23
Azimuth
316.715° NNW
Elevation
-34.686°
Doppler factor
1
Orbital elements
Apogee altitude
548.278 km
Perigee altitude
546.791 km
Semi-major axis
6,925.671 km
Eccentricity
0.0001073
Inclination
53.0561°
RAAN
345.595°
Arg. of periapsis
103.3936°
True anomaly
256.70523°
Mean anomaly
256.7172°
Eccentric anomaly
256.71122°
Mean motion
3.76574 °/min
BSTAR
0.00054687
Orbital period
95.6 mins
Loading maneuver chart data...
Loading SW <> Apogee altitude chart data...

STARLINK-1404 Visibility forecast

Observer location: undefined°, undefined°

Span
Click to sort rows by Start time (UTC) header in descending order
Start Az.
Max El. time (UTC)
Max El. Az.
Max El.
End time (UTC)
End Az.
6 mins2025-05-09 16:10:28.383Z184.058° SSW2025-05-09 16:13:28.383Z124.499° SE25.279°2025-05-09 16:16:28.383Z73.212° E
6 mins2025-05-09 17:50:28.383Z268.084° W2025-05-09 17:52:28.383Z320.028° NNW33.745°2025-05-09 17:56:28.383Z39.215° NE
5 mins2025-05-09 22:52:28.383Z340.436° N2025-05-09 22:54:28.383Z30.143° NE29.075°2025-05-09 22:57:28.383Z90.806° ESE
6 mins2025-05-10 00:31:28.383Z286.76° WNW2025-05-10 00:34:28.383Z209.765° SW31.064°2025-05-10 00:37:28.383Z160.332° S
|